Weather History for KCEY - October, 2012

Change the Weather History Date:

Tuesday, October 9, 2012

  Actual Average (KPAH) Record (KPAH)
Temperature  
Mean Temperature 50 °F 61 °F  
Max Temperature 64 °F 73 °F 91 °F (1939)
Min Temperature 37 °F 49 °F 30 °F (2000)
Degree Days  
Heating Degree Days 14 6  
Month to date heating degree days 44  
Since 1 July heating degree days 83  
Cooling Degree Days 0 2  
Month to date cooling degree days 19  
Year to date cooling degree days 1519  
Moisture  
Dew Point 41 °F    
Average Humidity 69    
Maximum Humidity 100    
Minimum Humidity 42    
Precipitation  
Precipitation 0.00 in 0.13 in 1.99 in (1970)
Month to date precipitation 1.21  
Year to date precipitation 37.44  
Snow  
Snow 0.00 in 0.00 in 0.00 in (2002)
Month to date snowfall 0.0  
Since 1 July snowfall 0.0  
Since 1 September snowfall 0.0  
Snow Depth -    
Sea Level Pressure  
Sea Level Pressure 30.09 in    
Wind  
Wind Speed 4 mph (SSW)    
Max Wind Speed 12 mph    
Max Gust Speed 18 mph    
Visibility 9 miles    
Events      
T = Trace of Precipitation, MM = Missing Value Source: NWS Daily Summary

Daily Weather History Graph

Daily Weather History Graph

Search for Another Location

Airport or City:

Trip Planner

Search our weather history database for the weather conditions in past years. The results will help you decide how hot, cold, wet, or windy it might be!

Date:

Astronomy

Oct. 09, 2012 Rise Set
Actual Time 6:55 AM CDT 6:24 PM CDT
Civil Twilight 6:30 AM CDT 6:50 PM CDT
Nautical Twilight 6:00 AM CDT 7:20 PM CDT
Astronomical Twilight 5:30 AM CDT 7:50 PM CDT
Moon 12:41 AM CDT (10/9) 2:43 PM CDT (10/9)
Length of Visible Light 12h 20m
Length of Day
11h 28m
Last Quarter, 36% of the Moon is Illuminated
Oct 9
Last Quarter
Oct 15
New
Oct 21
First Quarter
Oct 29
Full
Nov 6
Last Quarter

Hourly Weather History & Observations

Time (CDT) Temp. Windchill Dew Point Humidity Pressure Visibility Wind Dir Wind Speed Gust Speed Precip Events Conditions
12:15 AM 42.8 °F 39.3 °F 37.4 °F 81% 30.14 in 6.0 mi SSE 5.8 mph - N/A   Clear
12:35 AM 41.0 °F 39.0 °F 37.4 °F 87% 30.14 in 5.0 mi SSE 3.5 mph - N/A   Clear
12:55 AM 41.0 °F - 37.4 °F 87% 30.14 in 7.0 mi Calm Calm - N/A   Clear
1:15 AM 41.0 °F - 37.4 °F 87% 30.14 in 5.0 mi Calm Calm - N/A   Clear
1:35 AM 39.2 °F - 37.4 °F 93% 30.15 in 5.0 mi Calm Calm - N/A   Clear
1:55 AM 41.0 °F - 37.4 °F 87% 30.15 in 5.0 mi Calm Calm - N/A   Clear
2:55 AM 39.2 °F - 37.4 °F 93% 30.14 in 9.0 mi Calm Calm - N/A   Clear
3:15 AM 39.2 °F 37.0 °F 37.4 °F 93% 30.14 in 10.0 mi SSW 3.5 mph - N/A   Clear
3:35 AM 39.2 °F - 35.6 °F 87% 30.14 in 8.0 mi Calm Calm - N/A   Clear
3:55 AM 39.2 °F - 37.4 °F 93% 30.13 in 10.0 mi Calm Calm - N/A   Clear
4:15 AM 39.2 °F 37.0 °F 37.4 °F 93% 30.14 in 9.0 mi SSW 3.5 mph - N/A   Clear
4:35 AM 39.2 °F 37.0 °F 37.4 °F 93% 30.14 in 9.0 mi SSW 3.5 mph - N/A   Clear
4:55 AM 39.2 °F 37.0 °F 35.6 °F 87% 30.14 in 10.0 mi South 3.5 mph - N/A   Clear
5:15 AM 39.2 °F 37.0 °F 37.4 °F 93% 30.14 in 10.0 mi SSW 3.5 mph - N/A   Clear
5:35 AM 37.4 °F - 37.4 °F 100% 30.14 in 10.0 mi Calm Calm - N/A   Clear
5:55 AM 37.4 °F 34.9 °F 37.4 °F 100% 30.15 in 8.0 mi South 3.5 mph - N/A   Clear
6:15 AM 39.2 °F 37.0 °F 37.4 °F 93% 30.15 in 8.0 mi South 3.5 mph - N/A   Clear
6:35 AM 39.2 °F 37.0 °F 37.4 °F 93% 30.15 in 10.0 mi SSE 3.5 mph - N/A   Clear
6:55 AM 39.2 °F - 37.4 °F 93% 30.15 in 9.0 mi Calm Calm - N/A   Clear
7:35 AM 41.0 °F 38.0 °F 37.4 °F 87% 30.16 in 8.0 mi SSW 4.6 mph - N/A   Clear
7:55 AM 42.8 °F - 39.2 °F 87% 30.16 in 10.0 mi Calm Calm - N/A   Clear
8:15 AM 46.4 °F - 41.0 °F 81% 30.16 in 10.0 mi Calm Calm - N/A   Clear
8:35 AM 48.2 °F - 41.0 °F 76% 30.16 in 10.0 mi Calm Calm - N/A   Clear
8:55 AM 50.0 °F - 42.8 °F 76% 30.16 in 10.0 mi Calm Calm - N/A   Clear
9:15 AM 53.6 °F - 42.8 °F 67% 30.17 in 10.0 mi Calm Calm - N/A   Clear
9:35 AM 55.4 °F - 41.0 °F 58% 30.17 in 10.0 mi SSW 5.8 mph - N/A   Clear
9:55 AM 55.4 °F - 41.0 °F 58% 30.16 in 10.0 mi South 3.5 mph - N/A   Clear
10:15 AM 57.2 °F - 41.0 °F 55% 30.16 in 10.0 mi SSW 8.1 mph - N/A   Clear
10:35 AM 57.2 °F - 41.0 °F 55% 30.16 in 10.0 mi SW 8.1 mph - N/A   Partly Cloudy
10:55 AM 57.2 °F - 41.0 °F 55% 30.16 in 10.0 mi SW 6.9 mph 18.4 mph N/A   Partly Cloudy
11:15 AM 59.0 °F - 41.0 °F 51% 30.15 in 10.0 mi WSW 10.4 mph - N/A   Clear
11:35 AM 59.0 °F - 41.0 °F 51% 30.14 in 10.0 mi South 5.8 mph - N/A   Clear
11:55 AM 59.0 °F - 41.0 °F 51% 30.13 in 10.0 mi SW 8.1 mph - N/A   Clear
12:15 PM 59.0 °F - 41.0 °F 51% 30.12 in 10.0 mi WSW 4.6 mph 16.1 mph N/A   Clear
12:35 PM 59.0 °F - 41.0 °F 51% 30.10 in 10.0 mi South 9.2 mph 17.3 mph N/A   Partly Cloudy
12:55 PM 62.6 °F - 41.0 °F 45% 30.09 in 10.0 mi SW 8.1 mph 17.3 mph N/A   Clear
1:15 PM 62.6 °F - 41.0 °F 45% 30.07 in 10.0 mi SW 6.9 mph - N/A   Clear
1:35 PM 62.6 °F - 41.0 °F 45% 30.07 in 10.0 mi SSW 8.1 mph 16.1 mph N/A   Clear
1:55 PM 62.6 °F - 41.0 °F 45% 30.06 in 10.0 mi South 8.1 mph - N/A   Clear
2:15 PM 62.6 °F - 41.0 °F 45% 30.06 in 10.0 mi WSW 9.2 mph 16.1 mph N/A   Clear
2:35 PM 62.6 °F - 41.0 °F 45% 30.05 in 10.0 mi South 9.2 mph - N/A   Clear
2:55 PM 64.4 °F - 41.0 °F 42% 30.04 in 10.0 mi SW 9.2 mph 18.4 mph N/A   Clear
3:15 PM 64.4 °F - 41.0 °F 42% 30.03 in 10.0 mi SSW 8.1 mph - N/A   Clear
3:35 PM 64.4 °F - 42.8 °F 45% 30.03 in 10.0 mi SSW 11.5 mph 18.4 mph N/A   Clear
3:55 PM 64.4 °F - 41.0 °F 42% 30.02 in 10.0 mi SW 8.1 mph - N/A   Clear
4:15 PM 64.4 °F - 41.0 °F 42% 30.02 in 10.0 mi SSW 8.1 mph - N/A   Clear
4:35 PM 62.6 °F - 41.0 °F 45% 30.01 in 10.0 mi SSW 8.1 mph - N/A   Clear
4:55 PM 62.6 °F - 41.0 °F 45% 30.01 in 10.0 mi South 6.9 mph - N/A   Clear
5:15 PM 62.6 °F - 41.0 °F 45% 30.01 in 10.0 mi SSW 8.1 mph - N/A   Clear
5:55 PM 60.8 °F - 42.8 °F 52% 30.00 in 10.0 mi SSW 4.6 mph - N/A   Clear
6:15 PM 59.0 °F - 42.8 °F 55% 30.00 in 10.0 mi South 3.5 mph - N/A   Clear
6:35 PM 55.4 °F - 44.6 °F 67% 30.00 in 10.0 mi South 4.6 mph - N/A   Clear
6:55 PM 53.6 °F - 44.6 °F 72% 30.00 in 10.0 mi South 5.8 mph - N/A   Clear
7:15 PM 53.6 °F - 44.6 °F 72% 30.01 in 10.0 mi SSW 4.6 mph - N/A   Clear
7:35 PM 51.8 °F - 44.6 °F 76% 30.01 in 10.0 mi South 4.6 mph - N/A   Clear
7:55 PM 53.6 °F - 44.6 °F 72% 30.01 in 10.0 mi South 4.6 mph - N/A   Clear
8:15 PM 53.6 °F - 44.6 °F 72% 30.01 in 10.0 mi South 5.8 mph - N/A   Clear
8:35 PM 53.6 °F - 44.6 °F 72% 30.01 in 10.0 mi South 5.8 mph - N/A   Clear
8:55 PM 53.6 °F - 44.6 °F 72% 30.02 in 10.0 mi South 4.6 mph - N/A   Clear
9:15 PM 53.6 °F - 44.6 °F 72% 30.02 in 10.0 mi South 3.5 mph - N/A   Clear
9:35 PM 51.8 °F - 44.6 °F 76% 30.02 in 10.0 mi South 4.6 mph - N/A   Clear
9:55 PM 50.0 °F - 44.6 °F 82% 30.02 in 10.0 mi South 4.6 mph - N/A   Clear
10:15 PM 53.6 °F - 44.6 °F 72% 30.03 in 10.0 mi SSW 3.5 mph - N/A   Mostly Cloudy
10:35 PM 53.6 °F - 44.6 °F 72% 30.02 in 10.0 mi SSW 4.6 mph - N/A   Overcast
10:55 PM 53.6 °F - 44.6 °F 72% 30.03 in 10.0 mi SW 5.8 mph - N/A   Mostly Cloudy
11:15 PM 53.6 °F - 44.6 °F 72% 30.03 in 10.0 mi SSW 5.8 mph - N/A   Partly Cloudy
11:35 PM 53.6 °F - 46.4 °F 77% 30.02 in 10.0 mi SW 5.8 mph - N/A   Mostly Cloudy
11:55 PM 55.4 °F - 46.4 °F 72% 30.02 in 10.0 mi SW 8.1 mph - N/A   Overcast